TimeMDT,TemperatureF,Dew PointF,Humidity,Sea Level PressureIn,VisibilityMPH,Wind Direction,Wind SpeedMPH,Gust SpeedMPH,PrecipitationIn,Events,Conditions,WindDirDegrees,DateUTC
12:53 AM,28.9,21.9,75,30.34,10.0,ESE,4.6,-,N/A,,Mostly Cloudy,110,2012-10-05 06:53:00
2:53 AM,30.0,23.0,75,30.32,10.0,Calm,Calm,-,N/A,,Overcast,0,2012-10-05 08:53:00
3:53 AM,28.9,21.9,75,30.32,10.0,East,5.8,-,N/A,,Overcast,80,2012-10-05 09:53:00
4:53 AM,28.9,21.9,75,30.31,10.0,East,5.8,-,N/A,,Overcast,80,2012-10-05 10:53:00
5:53 AM,28.0,21.9,78,30.32,10.0,Calm,Calm,-,N/A,,Mostly Cloudy,0,2012-10-05 11:53:00
6:53 AM,28.0,21.9,78,30.36,10.0,Calm,Calm,-,N/A,,Overcast,0,2012-10-05 12:53:00
7:53 AM,26.1,21.9,84,30.40,10.0,Calm,Calm,-,N/A,,Mostly Cloudy,0,2012-10-05 13:53:00
8:53 AM,28.9,23.0,78,30.41,10.0,Calm,Calm,-,N/A,,Overcast,0,2012-10-05 14:53:00
9:36 AM,30.2,23.0,75,30.32,10.0,Calm,Calm,-,N/A,,Overcast,0,2012-10-05 15:36:00
9:53 AM,32.0,23.0,69,30.41,10.0,Calm,Calm,-,N/A,,Overcast,0,2012-10-05 15:53:00
10:53 AM,33.1,23.0,66,30.41,10.0,Calm,Calm,-,N/A,,Overcast,0,2012-10-05 16:53:00
11:26 AM,35.6,23.0,60,30.32,10.0,Calm,Calm,-,N/A,,Scattered Clouds,0,2012-10-05 17:26:00
11:53 AM,37.0,21.9,54,30.39,10.0,Calm,Calm,-,N/A,,Clear,0,2012-10-05 17:53:00
12:53 PM,41.0,19.0,41,30.36,10.0,NE,8.1,-,N/A,,Scattered Clouds,50,2012-10-05 18:53:00
1:53 PM,42.1,17.1,37,30.33,10.0,Variable,5.8,-,N/A,,Scattered Clouds,0,2012-10-05 19:53:00
2:53 PM,44.1,17.1,34,30.30,10.0,East,4.6,-,N/A,,Partly Cloudy,80,2012-10-05 20:53:00
3:53 PM,44.1,17.1,34,30.29,10.0,ENE,8.1,-,N/A,,Clear,60,2012-10-05 21:53:00
4:53 PM,44.1,16.0,32,30.29,10.0,East,4.6,-,N/A,,Clear,80,2012-10-05 22:53:00
5:53 PM,39.9,17.1,40,30.32,10.0,NNE,13.8,-,N/A,,Scattered Clouds,30,2012-10-05 23:53:00
7:53 PM,34.0,17.1,50,30.39,10.0,NNE,15.0,-,N/A,,Overcast,30,2012-10-06 01:53:00
8:53 PM,34.0,15.1,46,30.39,10.0,NNE,17.3,-,N/A,,Overcast,30,2012-10-06 02:53:00
9:53 PM,32.0,14.0,48,30.40,10.0,NE,13.8,-,N/A,,Overcast,40,2012-10-06 03:53:00
10:53 PM,30.0,14.0,51,30.42,10.0,ENE,8.1,-,N/A,,Overcast,60,2012-10-06 04:53:00
11:53 PM,28.0,14.0,56,30.42,10.0,East,8.1,-,N/A,,Clear,90,2012-10-06 05:53:00